This is the latest recevied weather packets stored in our database for station/object OM8AGG-15. If no packets are shown the sender has not sent any weather packets the latest 10 day(s).
| Time | Temp. | Humidity | Pressure | Rain* | Wind** | Luminosity | Snow |
|---|---|---|---|---|---|---|---|
| 1788427986 | 21.11° C | 48% | 1019.5 hPa | - | - | - | - |
| 1788427095 | 20° C | 52% | 1019.5 hPa | - | - | - | - |
| 1788427085 | 20° C | 52% | 1019.5 hPa | - | - | - | - |
| 1788426185 | 21.11° C | 49% | 1019.7 hPa | - | - | - | - |
| 1788425284 | 21.11° C | 52% | 1019.6 hPa | - | - | - | - |
| 1788424384 | 18.33° C | 62% | 1019.8 hPa | - | - | - | - |
| 1788423495 | 17.78° C | 64% | 1019.7 hPa | - | - | - | - |
| 1788422583 | 17.78° C | 64% | 1019.8 hPa | - | - | - | - |
| 1788421683 | 15.56° C | 72% | 1019.9 hPa | - | - | - | - |
| 1788420782 | 15° C | 74% | 1019.8 hPa | - | - | - | - |
| 1788419882 | 13.89° C | 80% | 1019.8 hPa | - | - | - | - |
| 1788418981 | 13.33° C | 81% | 1020 hPa | - | - | - | - |
| 1788418081 | 13.33° C | 76% | 1019.9 hPa | - | - | - | - |
| 1788417180 | 13.33° C | 73% | 1019.7 hPa | - | - | - | - |
| 1788416286 | 13.89° C | 70% | 1020.1 hPa | - | - | - | - |
| 1788415379 | 13.89° C | 67% | 1020.1 hPa | - | - | - | - |
| 1788414479 | 13.89° C | 67% | 1020 hPa | - | - | - | - |
| 1788413579 | 14.44° C | 66% | 1020.2 hPa | - | - | - | - |
| 1788412702 | 13.89° C | 66% | 1020.2 hPa | - | - | - | - |
| 1788411779 | 13.89° C | 67% | 1020.2 hPa | - | - | - | - |
| 1788410887 | 13.89° C | 67% | 1019.9 hPa | - | - | - | - |
| 1788409978 | 13.33° C | 70% | 1019.4 hPa | - | - | - | - |
| 1788409077 | 12.78° C | 72% | 1019.4 hPa | - | - | - | - |
| 1788408177 | 12.78° C | 73% | 1019.3 hPa | - | - | - | - |
| 1788407277 | 13.33° C | 72% | 1019.2 hPa | - | - | - | - |
* Rain since midnight (hover to see other rain measurements)
** Current wind speed in m/s (hover to see current wind gust speed)